EW6576 Weather Reports


Display with metric or nautical units.
time (UTC)temp
F
wind
direction
speed
MPH
gust
MPH
rain 1hr
in
rain 24hr
in
rain mn
in
humidity
%
barometer
mb
20260508172213 64 274 0.0 1.0 0.00 0.00 0.00 84 1016.3
20260508171709 63 357 1.0 1.0 0.00 0.00 0.00 86 1016.1
20260508171205 63 135 1.0 1.0 0.00 0.00 0.00 87 1016.2
20260508170702 62 326 2.0 2.0 0.00 0.00 0.00 88 1016.1
20260508170200 62 49 1.0 1.0 0.00 0.00 0.00 88 1016.1
20260508165657 62 62 1.0 2.0 0.00 0.00 0.00 88 1016.3
20260508165154 62 102 0.0 1.0 0.00 0.00 0.00 88 1016.5
20260508164650 62 261 1.0 1.0 0.00 0.00 0.00 89 1016.2
20260508164147 62 217 1.0 2.0 0.00 0.00 0.00 89 1016.2
20260508163645 61 73 1.0 2.0 0.00 0.00 0.00 90 1016.5
20260508163142 62 30 1.0 1.0 0.00 0.00 0.00 90 1016.3
20260508162637 62 126 0.0 0.0 0.00 0.00 0.00 90 1016.7
20260508162135 61 116 0.0 0.0 0.00 0.00 0.00 90 1016.6
20260508161632 61 167 1.0 1.0 0.00 0.00 0.00 90 1016.8
20260508161129 61 205 1.0 1.0 0.00 0.00 0.00 91 1016.7
20260508160628 61 196 1.0 2.0 0.00 0.00 0.00 91 1016.5
20260508160125 61 183 0.0 0.0 0.00 0.00 0.00 91 1016.6
20260508155622 61 83 0.0 1.0 0.00 0.00 0.00 91 1016.6
20260508155119 61 179 0.0 0.0 0.00 0.00 0.00 92 1016.7
20260508154615 61 125 0.0 0.0 0.00 0.00 0.00 92 1016.5
20260508154107 60 192 0.0 0.0 0.00 0.00 0.00 93 1016.2
20260508153604 60 174 0.0 0.0 0.00 0.00 0.00 93 1016.6
20260508153100 60 159 0.0 0.0 0.00 0.00 0.00 94 1016.5
20260508152557 60 129 0.0 0.0 0.00 0.00 0.00 94 1016.3
20260508152052 60 152 0.0 0.0 0.00 0.00 0.00 94 1016.5
20260508151549 60 156 0.0 0.0 0.00 0.00 0.00 95 1016.7
20260508151046 60 156 0.0 0.0 0.00 0.00 0.00 95 1016.6
20260508150543 59 135 0.0 0.0 0.00 0.00 0.00 95 1016.8
20260508150039 59 127 1.0 1.0 0.00 0.00 0.00 95 1016.3
20260508145536 59 144 0.0 0.0 0.00 0.00 0.00 95 1016.6
20260508145032 59 139 1.0 1.0 0.00 0.00 0.00 95 1016.6
20260508144530 59 126 2.0 2.0 0.00 0.00 0.00 95 1016.6
20260508144027 59 113 2.0 2.0 0.00 0.00 0.00 95 1016.2
20260508143525 59 127 1.0 1.0 0.00 0.00 0.00 95 1016.3
20260508143021 59 124 1.0 1.0 0.00 0.00 0.00 95 1016.1
20260508142518 59 94 2.0 2.0 0.00 0.00 0.00 95 1016.2
20260508142015 59 134 1.0 1.0 0.00 0.00 0.00 95 1016.2
20260508141511 59 152 0.0 0.0 0.00 0.00 0.00 95 1016.6
20260508141009 59 117 0.0 0.0 0.00 0.00 0.00 95 1016.3
20260508140506 59 122 0.0 0.0 0.00 0.00 0.00 95 1015.8
20260508140002 59 178 1.0 1.0 0.00 0.00 0.00 95 1016.2
20260508135458 59 167 0.0 0.0 0.00 0.00 0.00 95 1016.1
20260508134954 59 181 0.0 0.0 0.00 0.00 0.00 95 1016.0
20260508134451 59 183 0.0 0.0 0.00 0.00 0.00 95 1016.1
20260508133948 59 78 0.0 0.0 0.00 0.00 0.00 95 1016.1
20260508133445 59 128 0.0 0.0 0.00 0.00 0.00 95 1016.0
20260508132942 59 56 1.0 1.0 0.00 0.00 0.00 95 1016.1
20260508132440 59 351 1.0 2.0 0.00 0.00 0.00 95 1016.0
20260508131937 59 188 0.0 0.0 0.00 0.00 0.00 95 1016.1
20260508131432 59 176 0.0 0.0 0.00 0.00 0.00 95 1015.8
20260508130929 59 189 0.0 0.0 0.00 0.00 0.00 95 1015.9
20260508130426 59 134 0.0 1.0 0.00 0.00 0.00 95 1016.0
20260508125922 59 5 0.0 1.0 0.00 0.00 0.00 95 1015.6
20260508125418 59 80 1.0 1.0 0.00 0.00 0.00 95 1015.9
20260508124916 59 142 0.0 0.0 0.00 0.00 0.00 95 1015.7
20260508124413 59 187 0.0 0.0 0.00 0.00 0.00 95 1015.7
20260508123911 59 178 0.0 0.0 0.00 0.00 0.00 95 1015.7
20260508123410 59 204 1.0 1.0 0.00 0.00 0.00 95 1015.8
20260508122905 59 127 2.0 2.0 0.00 0.00 0.00 95 1015.6
20260508122403 59 125 0.0 0.0 0.00 0.00 0.00 95 1015.8
20260508121900 59 104 1.0 1.0 0.00 0.00 0.00 94 1015.6
20260508121358 59 124 0.0 1.0 0.00 0.00 0.00 94 1015.6
20260508120855 59 14 2.0 2.0 0.00 0.00 0.00 94 1015.7
20260508120353 59 51 1.0 1.0 0.00 0.00 0.00 94 1015.4
20260508115850 59 28 1.0 1.0 0.00 0.00 0.00 94 1015.6
20260508115347 59 95 0.0 1.0 0.00 0.00 0.00 94 1015.7
20260508114844 59 123 0.0 0.0 0.00 0.00 0.00 94 1015.8
20260508114341 59 27 2.0 2.0 0.00 0.00 0.00 94 1015.6
20260508113838 59 185 0.0 0.0 0.00 0.00 0.00 95 1015.6
20260508113336 59 191 0.0 0.0 0.00 0.00 0.00 95 1015.6
20260508112832 59 76 1.0 2.0 0.00 0.00 0.00 94 1015.6
20260508112329 59 192 0.0 0.0 0.00 0.00 0.00 95 1015.6
20260508111826 59 193 0.0 0.0 0.00 0.00 0.00 95 1015.7
20260508111323 59 173 1.0 2.0 0.00 0.00 0.00 94 1015.7
20260508110820 59 128 1.0 1.0 0.00 0.00 0.00 94 1015.5
20260508110318 59 189 0.0 0.0 0.00 0.00 0.00 94 1015.6
20260508105817 59 131 0.0 1.0 0.00 0.00 0.00 94 1015.5
20260508105314 59 180 0.0 0.0 0.00 0.00 0.00 94 1015.4
20260508104811 59 114 0.0 0.0 0.00 0.00 0.00 94 1015.6
20260508104308 59 116 0.0 0.0 0.00 0.00 0.00 94 1015.6
20260508103805 59 15 1.0 2.0 0.00 0.00 0.00 94 1015.6
20260508103302 59 139 0.0 0.0 0.00 0.00 0.00 94 1015.6
20260508102800 59 352 0.0 1.0 0.00 0.00 0.00 94 1015.8
20260508102257 59 87 0.0 1.0 0.00 0.00 0.00 94 1015.7
20260508101755 59 11 0.0 1.0 0.00 0.00 0.00 94 1015.6
20260508101252 59 126 0.0 0.0 0.00 0.00 0.00 94 1015.8
20260508100749 59 56 0.0 1.0 0.00 0.00 0.00 94 1015.6
20260508100248 60 173 0.0 0.0 0.00 0.00 0.00 94 1015.6
20260508095743 59 179 0.0 0.0 0.00 0.00 0.00 94 1015.7
20260508095241 59 138 0.0 0.0 0.00 0.00 0.00 94 1015.6
20260508094738 59 50 1.0 1.0 0.00 0.00 0.00 94 1015.6
20260508094235 60 153 0.0 0.0 0.00 0.00 0.00 94 1015.7
20260508093732 59 144 0.0 0.0 0.00 0.00 0.00 94 1015.5
20260508093229 59 118 1.0 1.0 0.00 0.00 0.00 94 1015.7
20260508092726 59 134 0.0 0.0 0.00 0.00 0.00 94 1015.8
20260508092224 59 137 0.0 0.0 0.00 0.00 0.00 94 1015.6
20260508091722 59 101 1.0 1.0 0.00 0.00 0.00 94 1015.9
20260508091219 59 86 0.0 0.0 0.00 0.00 0.00 94 1015.6
20260508090717 59 5 1.0 1.0 0.00 0.00 0.00 94 1015.6
20260508090214 59 123 1.0 1.0 0.00 0.00 0.00 95 1015.4
20260508085710 59 170 0.0 0.0 0.00 0.00 0.00 95 1015.5
20260508085207 59 127 0.0 0.0 0.00 0.00 0.00 95 1015.8
20260508084703 59 125 0.0 0.0 0.00 0.00 0.00 95 1015.7
20260508084201 59 243 1.0 1.0 0.00 0.00 0.00 95 1016.0
20260508083658 59 102 1.0 1.0 0.00 0.00 0.00 95 1016.1
20260508083155 59 110 2.0 2.0 0.00 0.00 0.00 95 1015.9
20260508082650 59 121 3.0 3.0 0.00 0.00 0.00 95 1016.1
20260508082148 59 128 2.0 2.0 0.00 0.00 0.00 94 1016.0
20260508081645 59 169 0.0 0.0 0.00 0.00 0.00 94 1016.1
20260508081142 59 169 1.0 1.0 0.00 0.00 0.00 94 1016.2
20260508080639 59 118 1.0 1.0 0.00 0.00 0.00 93 1016.1
20260508080137 60 284 1.0 1.0 0.00 0.00 0.00 93 1016.3
20260508075633 60 29 0.0 0.0 0.00 0.00 0.00 93 1016.3
20260508075130 60 251 1.0 2.0 0.00 0.00 0.00 93 1016.3
20260508074628 60 24 1.0 2.0 0.00 0.00 0.00 93 1016.2
20260508074125 60 16 0.0 0.0 0.00 0.00 0.00 94 1016.1
20260508073622 60 88 1.0 2.0 0.00 0.00 0.00 93 1016.3
20260508073120 60 122 0.0 0.0 0.00 0.00 0.00 94 1016.3
20260508072615 60 101 0.0 0.0 0.00 0.00 0.00 94 1016.5
20260508072112 59 136 0.0 0.0 0.00 0.00 0.00 94 1016.6
20260508071610 59 126 1.0 1.0 0.00 0.00 0.00 94 1016.6
20260508071108 60 113 1.0 2.0 0.00 0.00 0.00 94 1016.5
20260508070605 59 116 1.0 2.0 0.00 0.00 0.00 94 1016.3
20260508070104 59 112 1.0 1.0 0.00 0.00 0.00 94 1016.7
20260508065601 59 141 0.0 1.0 0.00 0.00 0.00 94 1016.6
20260508065059 60 121 2.0 3.0 0.00 0.00 0.00 94 1016.5
20260508064556 60 142 0.0 1.0 0.00 0.00 0.00 94 1016.7
20260508064054 59 134 0.0 0.0 0.00 0.00 0.00 94 1016.7
20260508063551 59 132 1.0 1.0 0.00 0.00 0.00 94 1016.8
20260508063049 59 117 1.0 2.0 0.00 0.00 0.00 94 1016.8
20260508062546 59 152 0.0 0.0 0.00 0.00 0.00 94 1016.5
20260508062042 59 149 0.0 1.0 0.00 0.00 0.00 94 1016.7
20260508061540 59 160 0.0 0.0 0.00 0.00 0.00 94 1016.7
20260508061037 59 144 0.0 0.0 0.00 0.00 0.00 94 1016.7
20260508060534 59 75 2.0 2.0 0.00 0.00 0.00 94 1016.7
20260508060031 59 142 0.0 0.0 0.00 0.00 0.00 95 1016.9
20260508055527 59 141 1.0 1.0 0.00 0.00 0.00 95 1016.8
20260508055024 59 156 1.0 1.0 0.00 0.00 0.00 95 1016.7
20260508054520 59 137 1.0 1.0 0.00 0.00 0.00 95 1016.5
20260508054018 59 127 1.0 1.0 0.00 0.00 0.00 95 1016.6
20260508053514 59 122 0.0 0.0 0.00 0.00 0.00 95 1016.6
20260508053012 59 157 0.0 1.0 0.00 0.00 0.00 95 1016.6
20260508052504 59 122 2.0 2.0 0.00 0.00 0.00 96 1016.6
20260508052000 59 158 0.0 0.0 0.00 0.00 0.00 96 1016.7
20260508051456 59 120 0.0 0.0 0.00 0.00 0.00 96 1016.6
20260508050952 58 113 1.0 1.0 0.00 0.00 0.00 96 1016.6
20260508050449 58 146 0.0 0.0 0.00 0.00 0.00 96 1016.8
20260508045945 58 166 1.0 1.0 0.00 0.00 0.00 95 1016.6
20260508045442 58 167 0.0 0.0 0.00 0.00 0.00 95 1016.5
20260508044940 58 143 1.0 1.0 0.00 0.00 0.00 95 1016.7
20260508044437 58 133 1.0 1.0 0.00 0.00 0.00 95 1016.7
20260508043932 58 132 1.0 1.0 0.00 0.00 0.00 95 1016.6
20260508043430 58 115 2.0 2.0 0.00 0.00 0.00 95 1016.2
20260508042926 59 144 1.0 1.0 0.00 0.00 0.00 95 1016.2
20260508042424 59 124 2.0 2.0 0.00 0.00 0.00 94 1016.2
20260508041921 59 108 3.0 5.0 0.00 0.00 0.00 94 1016.1
20260508041417 59 169 1.0 2.0 0.00 0.00 0.00 94 1016.0
20260508040913 59 97 2.0 2.0 0.00 0.00 0.00 94 1016.2
20260508040411 59 87 3.0 3.0 0.00 0.00 0.00 94 1016.0
20260508035908 59 159 3.0 3.0 0.00 0.00 0.00 93 1016.0
20260508035400 59 136 2.0 2.0 0.00 0.00 0.00 93 1015.7
20260508034856 59 124 1.0 2.0 0.00 0.00 0.00 93 1015.5
20260508034353 59 161 3.0 3.0 0.00 0.00 0.00 93 1015.4
20260508033844 59 129 2.0 3.0 0.00 0.00 0.00 92 1015.5
20260508033343 59 129 1.0 1.0 0.00 0.00 0.00 92 1015.2
20260508032840 59 92 0.0 0.0 0.00 0.00 0.00 91 1015.2
20260508032337 60 115 0.0 1.0 0.00 0.00 0.00 90 1015.1
20260508031833 60 136 1.0 1.0 0.00 0.00 0.00 90 1015.3
20260508031331 60 52 1.0 1.0 0.00 0.00 0.00 90 1015.2
20260508030827 60 86 1.0 2.0 0.00 0.00 0.00 90 1014.9
20260508030324 60 126 0.0 1.0 0.00 0.00 0.00 89 1014.7
20260508025821 60 144 2.0 3.0 0.00 0.00 0.00 89 1014.8
20260508025318 61 111 1.0 1.0 0.00 0.00 0.00 88 1014.8
20260508024815 61 154 4.0 6.0 0.00 0.00 0.00 87 1014.8
20260508024311 62 118 1.0 1.0 0.00 0.00 0.00 86 1014.9
20260508023808 62 97 4.0 5.0 0.00 0.00 0.00 86 1014.7
20260508023305 62 98 3.0 5.0 0.00 0.00 0.00 85 1014.7
20260508022801 62 130 1.0 1.0 0.00 0.00 0.00 84 1014.7
20260508022257 63 81 3.0 5.0 0.00 0.00 0.00 84 1014.5
20260508021755 63 116 3.0 3.0 0.00 0.00 0.00 83 1014.5
20260508021250 63 135 2.0 3.0 0.00 0.00 0.00 83 1014.5
20260508020747 64 168 1.0 1.0 0.00 0.00 0.00 82 1014.4
20260508020245 64 121 3.0 3.0 0.00 0.00 0.00 81 1014.3
20260508015741 64 106 3.0 5.0 0.00 0.00 0.00 81 1014.5
20260508015238 65 110 3.0 3.0 0.00 0.00 0.00 80 1014.5
20260508014735 65 129 5.0 5.0 0.00 0.00 0.00 79 1014.4
20260508014232 65 112 3.0 3.0 0.00 0.00 0.00 79 1014.4
20260508013728 66 129 4.0 5.0 0.00 0.00 0.00 78 1014.5
20260508013224 66 109 5.0 6.0 0.00 0.00 0.00 78 1014.2
20260508012722 66 122 3.0 3.0 0.00 0.00 0.00 77 1014.3
20260508012219 66 109 3.0 3.0 0.00 0.00 0.00 77 1014.5
20260508011717 67 142 4.0 5.0 0.00 0.00 0.00 76 1014.4
20260508011214 67 118 3.0 3.0 0.00 0.00 0.00 76 1014.5
20260508010711 68 72 5.0 6.0 0.00 0.00 0.00 75 1014.3
20260508010209 67 105 3.0 5.0 0.00 0.00 0.00 75 1014.5
20260508005706 68 130 4.0 5.0 0.00 0.00 0.00 75 1014.2
20260508005202 68 127 3.0 3.0 0.00 0.00 0.00 74 1014.4
20260508004658 68 151 3.0 6.0 0.00 0.00 0.00 74 1014.1
20260508004154 68 134 4.0 5.0 0.00 0.00 0.00 73 1014.4
20260508003651 69 112 4.0 5.0 0.00 0.00 0.00 72 1014.3
20260508003149 69 181 1.0 2.0 0.00 0.00 0.00 73 1014.3
20260508002645 68 161 2.0 3.0 0.00 0.00 0.00 73 1014.2
20260508002143 69 165 4.0 5.0 0.00 0.00 0.00 73 1014.0
20260508001638 68 100 5.0 7.0 0.00 0.00 0.00 73 1014.3
20260508001134 69 121 4.0 6.0 0.00 0.00 0.00 73 1014.3
20260508000630 69 197 4.0 5.0 0.00 0.00 0.00 72 1014.2
20260508000128 70 112 6.0 7.0 0.00 0.00 0.00 71 1014.3
20260507235624 69 116 4.0 5.0 0.00 0.00 0.00 72 1014.3
20260507235122 69 100 6.0 7.0 0.00 0.00 0.00 73 1014.2
20260507234618 70 101 8.0 9.0 0.00 0.00 0.00 71 1014.2
20260507234115 70 108 3.0 6.0 0.00 0.00 0.00 71 1014.2
20260507233612 71 102 3.0 5.0 0.00 0.00 0.00 71 1014.2
20260507233110 70 145 3.0 3.0 0.00 0.00 0.00 71 1014.5
20260507232611 71 105 1.0 2.0 0.00 0.00 0.00 70 1014.4
20260507232104 70 147 7.0 8.0 0.00 0.00 0.00 71 1014.0
20260507231600 71 166 2.0 3.0 0.00 0.00 0.00 70 1014.1
20260507231057 71 140 1.0 1.0 0.00 0.00 0.00 69 1014.2
20260507230553 71 89 2.0 3.0 0.00 0.00 0.00 70 1014.1
20260507230050 71 81 5.0 8.0 0.00 0.00 0.00 70 1014.1
20260507225545 71 160 4.0 6.0 0.00 0.00 0.00 70 1014.2
20260507225042 71 111 3.0 5.0 0.00 0.00 0.00 69 1014.3
20260507224537 71 255 3.0 3.0 0.00 0.00 0.00 68 1014.4
20260507224034 71 117 6.0 7.0 0.00 0.00 0.00 70 1014.4
20260507223531 70 110 6.0 9.0 0.00 0.00 0.00 71 1014.2
20260507223028 70 148 2.0 3.0 0.00 0.00 0.00 71 1014.5
20260507222525 70 124 6.0 8.0 0.00 0.00 0.00 71 1014.3
20260507222021 70 107 6.0 7.0 0.00 0.00 0.00 72 1014.2
20260507221517 70 145 5.0 8.0 0.00 0.00 0.00 70 1014.4
20260507221015 71 84 7.0 9.0 0.00 0.00 0.00 70 1014.5
20260507220512 70 124 5.0 7.0 0.00 0.00 0.00 70 1014.5
20260507220009 70 97 7.0 8.0 0.00 0.00 0.00 71 1014.6
20260507215505 71 219 7.0 8.0 0.00 0.00 0.00 70 1014.7
20260507215003 71 103 8.0 10.0 0.00 0.00 0.00 70 1014.9
20260507214500 72 136 4.0 7.0 0.00 0.00 0.00 69 1014.7
20260507213955 71 175 3.0 5.0 0.00 0.00 0.00 69 1014.6
20260507213452 70 90 7.0 9.0 0.00 0.00 0.00 70 1014.8
20260507212949 71 124 9.0 9.0 0.00 0.00 0.00 68 1015.0
20260507212444 71 126 8.0 10.0 0.00 0.00 0.00 69 1014.8
20260507211942 71 108 7.0 10.0 0.00 0.00 0.00 70 1014.8
20260507211438 71 188 5.0 7.0 0.00 0.00 0.00 70 1014.8
20260507210935 71 145 10.0 11.0 0.00 0.00 0.00 69 1014.8
20260507210432 72 123 6.0 9.0 0.00 0.00 0.00 67 1014.8
20260507205929 71 105 6.0 9.0 0.00 0.00 0.00 69 1014.9
20260507205426 73 101 10.0 14.0 0.00 0.00 0.00 68 1015.0
20260507204922 71 109 4.0 5.0 0.00 0.00 0.00 69 1014.8
20260507204418 72 110 9.0 11.0 0.00 0.00 0.00 68 1015.2
20260507203916 73 169 5.0 6.0 0.00 0.00 0.00 68 1015.0
20260507203414 73 160 4.0 5.0 0.00 0.00 0.00 66 1014.9
20260507202910 73 152 5.0 8.0 0.00 0.00 0.00 67 1015.0
20260507202407 73 204 5.0 5.0 0.00 0.00 0.00 67 1015.1
20260507201902 73 119 8.0 9.0 0.00 0.00 0.00 66 1015.0
20260507201358 73 85 4.0 6.0 0.00 0.00 0.00 66 1015.1
20260507200854 73 108 5.0 7.0 0.00 0.00 0.00 68 1014.9
20260507200350 73 60 4.0 6.0 0.00 0.00 0.00 68 1015.2
20260507195847 72 117 2.0 3.0 0.00 0.00 0.00 68 1015.2
20260507195344 72 104 9.0 10.0 0.00 0.00 0.00 67 1015.1
20260507194841 72 128 6.0 7.0 0.00 0.00 0.00 67 1014.8
20260507194338 73 173 4.0 6.0 0.00 0.00 0.00 67 1015.0
20260507193834 73 74 3.0 5.0 0.00 0.00 0.00 67 1015.2
20260507193332 73 107 2.0 3.0 0.00 0.00 0.00 68 1015.1
20260507192827 73 142 3.0 5.0 0.00 0.00 0.00 68 1015.1
20260507192324 72 169 6.0 10.0 0.00 0.00 0.00 67 1015.4
20260507191821 72 154 6.0 13.0 0.00 0.00 0.00 69 1015.5
20260507191317 72 103 5.0 8.0 0.00 0.00 0.00 68 1015.5
20260507190814 73 185 3.0 6.0 0.00 0.00 0.00 67 1015.4
20260507190312 72 123 8.0 10.0 0.00 0.00 0.00 67 1015.5
20260507185811 73 98 10.0 13.0 0.00 0.00 0.00 67 1015.5
20260507185307 74 163 5.0 7.0 0.00 0.00 0.00 65 1015.5
20260507184804 73 158 4.0 5.0 0.00 0.00 0.00 66 1015.7
20260507184302 73 122 6.0 7.0 0.00 0.00 0.00 67 1015.4
20260507183759 73 130 5.0 6.0 0.00 0.00 0.00 67 1015.5
20260507183256 73 77 3.0 3.0 0.00 0.00 0.00 67 1015.8
20260507182753 73 126 4.0 6.0 0.00 0.00 0.00 67 1016.0
20260507182248 74 67 4.0 5.0 0.00 0.00 0.00 65 1015.8
20260507181745 72 122 3.0 6.0 0.00 0.00 0.00 68 1015.7
20260507181241 72 90 2.0 6.0 0.00 0.00 0.00 67 1015.9
20260507180738 72 138 1.0 2.0 0.00 0.00 0.00 68 1015.7
20260507180235 74 100 3.0 3.0 0.00 0.00 0.00 65 1015.9
20260507175730 73 190 2.0 2.0 0.00 0.00 0.00 65 1015.9
20260507175228 72 5 3.0 3.0 0.00 0.00 0.00 66 1016.0
20260507174725 71 160 0.0 1.0 0.00 0.00 0.00 69 1016.0
20260507174223 70 107 1.0 1.0 0.00 0.00 0.00 69 1016.1
20260507173720 71 117 2.0 2.0 0.00 0.00 0.00 68 1016.3
20260507173217 71 359 3.0 5.0 0.00 0.00 0.00 68 1016.2
20260507172714 71 129 1.0 1.0 0.00 0.00 0.00 68 1016.3